Weather in Zhlobin

Belarus     52°53′32″N   30°02′16″E
temp.,
°C
wind,
m/s
gust,
m/s
humid.,
%
clouds,
%
prec.,
mm/h
press.,
hPa
HPBL,
m
11 april, sun
sun1100:00+6s412705 0.0 1023223
03:00+4s411745 0.0 1024187
06:00+4s48765 0.0 1025125
09:00+8s46625 0.0 1026235
12:00+14s56465 0.0 1027788
15:00+16s55400 0.0 10271409
18:00+15sse46470 0.0 1026312
21:00+10sse45600 0.0 102865
12 april, mon
mon1200:00+8sse35680 0.0 102865
03:00+6se33730 0.0 102935
06:00+5ese35760 0.0 102866
09:00+9ese47632 0.0 1027303
12:00+14ese56435 0.0 10251012
15:00+15ese4536100 0.0 10241204
18:00+12ese5768100 0.0 1023375
21:00+8se4992100 0.0 1024349
13 april, tue
tue1300:00+9sse1392100 0.0 1022164
03:00+9ese2291100 0.0 102238
06:00+8n1192100 0.0 102113
09:00+10ene2386100 0.0 1021156
12:00+11ene2391100 0.1 1020181
15:00+12nw2390100 0.2 1019118
18:00+11nne1191100 0.0 101822
21:00+11ese3693100 0.3 1018169
14 april, wed
wed1400:00+11se4995100 0.1 1017377
03:00+10sse4897100 0.2 1017341
06:00+9sse4894100 0.0 1016365
09:00+10sse5885100 0.0 1017473
12:00+11sse5877100 0.0 1017567
15:00+15sse4657100 0.1 10151592
18:00+13se3570100 0.5 1015415
21:00+11se2277100 0.6 101517
15 april, thu
thu1500:00+9ssw118499 0.1 101510
03:00+8wsw2285100 0.1 101535
06:00+8wnw2285100 0.0 101524
09:00+10wsw127995 0.0 1015157
12:00+14nw1160100 0.0 1015887
15:00+14ssw1155100 0.5 10151119
18:00+12nw2271100 1.6 101596
21:00+10n4785100 2.3 1015293